owner,sensor,date,latitude,longitude,vertical_datum,direction_of_sea_water_velocity,sea_water_speed,upward_sea_water_velocity,qcFlag 
TABS,ioos:station:TABS:M:1,1999-04-01T00:00:00Z,28.1921,-94.1914,2.0,256.6112373,6.434881506,-99999.0,'11133222,11111222,99999999' 
TABS,ioos:station:TABS:M:1,1999-04-01T00:30:00Z,28.1921,-94.1914,2.0,259.8701757,8.47205406,-99999.0,'11133222,11111222,99999999' 
TABS,ioos:station:TABS:M:1,1999-04-01T01:00:00Z,28.1921,-94.1914,2.0,271.9890541,8.645206764,-99999.0,'11133222,11111222,99999999' 
TABS,ioos:station:TABS:M:1,1999-04-01T01:30:00Z,28.1921,-94.1914,2.0,274.305503,9.857814159,-99999.0,'11133222,11111222,99999999' 
TABS,ioos:station:TABS:M:1,1999-04-01T02:00:00Z,28.1921,-94.1914,2.0,287.7276118,11.26489237,-99999.0,'11111222,11111222,99999999' 
TABS,ioos:station:TABS:M:1,1999-04-01T02:30:00Z,28.1921,-94.1914,2.0,290.5388607,11.45832885,-99999.0,'11111222,11111222,99999999' 
TABS,ioos:station:TABS:M:1,1999-04-01T03:00:00Z,28.1921,-94.1914,2.0,285.3132035,9.580109603,-99999.0,'11133222,11111222,99999999' 
TABS,ioos:station:TABS:M:1,1999-04-01T03:30:00Z,28.1921,-94.1914,2.0,290.4720523,11.92299459,-99999.0,'11111222,11111222,99999999' 
TABS,ioos:station:TABS:M:1,1999-04-01T04:00:00Z,28.1921,-94.1914,2.0,291.5640395,12.97835891,-99999.0,'11111222,11111222,99999999' 
TABS,ioos:station:TABS:M:1,1999-04-01T04:30:00Z,28.1921,-94.1914,2.0,294.809024,13.13188867,-99999.0,'11111222,11111222,99999999' 
TABS,ioos:station:TABS:M:1,1999-04-01T05:00:00Z,28.1921,-94.1914,2.0,293.1938574,14.75227779,-99999.0,'11111222,11111222,99999999' 
TABS,ioos:station:TABS:M:1,1999-04-01T05:30:00Z,28.1921,-94.1914,2.0,291.1902505,15.65872281,-99999.0,'11111222,11111222,99999999' 
TABS,ioos:station:TABS:M:1,1999-04-01T06:00:00Z,28.1921,-94.1914,2.0,295.2591253,17.45928406,-99999.0,'11111222,11111222,99999999' 
TABS,ioos:station:TABS:M:1,1999-04-01T06:30:00Z,28.1921,-94.1914,2.0,301.7727093,19.8083442,-99999.0,'11111222,11111222,99999999' 
TABS,ioos:station:TABS:M:1,1999-04-01T07:00:00Z,28.1921,-94.1914,2.0,303.9467828,19.21500716,-99999.0,'11111222,11111222,99999999' 
TABS,ioos:station:TABS:M:1,1999-04-01T07:30:00Z,28.1921,-94.1914,2.0,307.5893613,18.80348106,-99999.0,'11111222,11111222,99999999' 
TABS,ioos:station:TABS:M:1,1999-04-01T08:00:00Z,28.1921,-94.1914,2.0,307.5668831,17.10726454,-99999.0,'11111222,11111222,99999999' 
TABS,ioos:station:TABS:M:1,1999-04-01T08:30:00Z,28.1921,-94.1914,2.0,301.9387951,16.33245848,-99999.0,'11111222,11111222,99999999' 
TABS,ioos:station:TABS:M:1,1999-04-01T09:00:00Z,28.1921,-94.1914,2.0,299.9922869,16.68406725,-99999.0,'11111222,11111222,99999999' 
TABS,ioos:station:TABS:M:1,1999-04-01T09:30:00Z,28.1921,-94.1914,2.0,300.0406936,17.55859049,-99999.0,'11111222,11111222,99999999' 
TABS,ioos:station:TABS:M:1,1999-04-01T10:00:00Z,28.1921,-94.1914,2.0,300.6102067,16.10402434,-99999.0,'11111222,11111222,99999999' 
TABS,ioos:station:TABS:M:1,1999-04-01T10:30:00Z,28.1921,-94.1914,2.0,304.3124878,15.32726982,-99999.0,'11111222,11111222,99999999' 
TABS,ioos:station:TABS:M:1,1999-04-01T11:00:00Z,28.1921,-94.1914,2.0,310.2300534,15.22016097,-99999.0,'11111222,11111222,99999999' 
TABS,ioos:station:TABS:M:1,1999-04-01T11:30:00Z,28.1921,-94.1914,2.0,305.0721368,15.29753248,-99999.0,'11111222,11111222,99999999' 
TABS,ioos:station:TABS:M:1,1999-04-01T12:00:00Z,28.1921,-94.1914,2.0,310.052233,14.59249807,-99999.0,'11111222,11111222,99999999' 
TABS,ioos:station:TABS:M:1,1999-04-01T12:30:00Z,28.1921,-94.1914,2.0,308.0354069,14.75305053,-99999.0,'11111222,11111222,99999999' 
TABS,ioos:station:TABS:M:1,1999-04-01T13:00:00Z,28.1921,-94.1914,2.0,304.3702133,14.25957222,-99999.0,'11111222,11111222,99999999' 
TABS,ioos:station:TABS:M:1,1999-04-01T13:30:00Z,28.1921,-94.1914,2.0,281.8737451,11.56748892,-99999.0,'11111222,11111222,99999999' 
TABS,ioos:station:TABS:M:1,1999-04-01T14:00:00Z,28.1921,-94.1914,2.0,318.6830246,18.05436235,-99999.0,'11111222,11111222,99999999' 
TABS,ioos:station:TABS:M:1,1999-04-01T14:30:00Z,28.1921,-94.1914,2.0,301.3557211,22.3313524,-99999.0,'11111222,11111222,99999999' 
TABS,ioos:station:TABS:M:1,1999-04-01T15:00:00Z,28.1921,-94.1914,2.0,276.2853016,21.74066466,-99999.0,'11111222,11111222,99999999' 
TABS,ioos:station:TABS:M:1,1999-04-01T15:30:00Z,28.1921,-94.1914,2.0,300.8183823,29.66935119,-99999.0,'11111222,11111222,99999999' 
TABS,ioos:station:TABS:M:1,1999-04-01T16:00:00Z,28.1921,-94.1914,2.0,308.6634882,26.71508375,-99999.0,'11111222,11111222,99999999' 
TABS,ioos:station:TABS:M:1,1999-04-01T16:30:00Z,28.1921,-94.1914,2.0,299.114853,26.94445583,-99999.0,'11111222,11111222,99999999' 
TABS,ioos:station:TABS:M:1,1999-04-01T17:00:00Z,28.1921,-94.1914,2.0,308.0626435,24.41128632,-99999.0,'11111222,11111222,99999999' 
TABS,ioos:station:TABS:M:1,1999-04-01T17:30:00Z,28.1921,-94.1914,2.0,313.7996154,35.09434427,-99999.0,'11111222,11111222,99999999' 
TABS,ioos:station:TABS:M:1,1999-04-01T18:00:00Z,28.1921,-94.1914,2.0,314.2314075,23.71142552,-99999.0,'11111222,11111222,99999999' 
TABS,ioos:station:TABS:M:1,1999-04-01T18:30:00Z,28.1921,-94.1914,2.0,319.9048499,29.60890744,-99999.0,'11111222,11111222,99999999' 
TABS,ioos:station:TABS:M:1,1999-04-01T19:00:00Z,28.1921,-94.1914,2.0,317.7079207,26.79390416,-99999.0,'11111222,11111222,99999999' 
TABS,ioos:station:TABS:M:1,1999-04-01T19:30:00Z,28.1921,-94.1914,2.0,318.8681011,28.09370036,-99999.0,'11111222,11111222,99999999' 
TABS,ioos:station:TABS:M:1,1999-04-01T20:00:00Z,28.1921,-94.1914,2.0,316.3506222,17.70379903,-99999.0,'11111222,11111222,99999999' 
TABS,ioos:station:TABS:M:1,1999-04-01T20:30:00Z,28.1921,-94.1914,2.0,313.8691314,16.11810473,-99999.0,'11111222,11111222,99999999' 
TABS,ioos:station:TABS:M:1,1999-04-01T21:00:00Z,28.1921,-94.1914,2.0,318.5781386,16.88326094,-99999.0,'11111222,11111222,99999999' 
TABS,ioos:station:TABS:M:1,1999-04-01T21:30:00Z,28.1921,-94.1914,2.0,291.1430732,14.86032301,-99999.0,'11111222,11111222,99999999' 
TABS,ioos:station:TABS:M:1,1999-04-01T22:00:00Z,28.1921,-94.1914,2.0,323.4358667,17.25624525,-99999.0,'11111222,11111222,99999999' 
TABS,ioos:station:TABS:M:1,1999-04-01T22:30:00Z,28.1921,-94.1914,2.0,272.4544469,7.006425622,-99999.0,'11133222,11111222,99999999' 
TABS,ioos:station:TABS:M:1,1999-04-01T23:00:00Z,28.1921,-94.1914,2.0,293.4074726,9.741688765,-99999.0,'11133222,11111222,99999999' 
TABS,ioos:station:TABS:M:1,1999-04-01T23:30:00Z,28.1921,-94.1914,2.0,293.0785884,8.750279996,-99999.0,'11133222,11111222,99999999' 
TABS,ioos:station:TABS:M:1,1999-04-02T00:00:00Z,28.1921,-94.1914,2.0,253.8008884,3.728002146,-99999.0,'11133222,11111222,99999999' 
TABS,ioos:station:TABS:M:1,1999-04-02T00:30:00Z,28.1921,-94.1914,2.0,251.1157451,6.457569202,-99999.0,'11133222,11111222,99999999' 
TABS,ioos:station:TABS:M:1,1999-04-02T01:00:00Z,28.1921,-94.1914,2.0,241.403875,9.339213029,-99999.0,'11133222,11111222,99999999' 
TABS,ioos:station:TABS:M:1,1999-04-02T01:30:00Z,28.1921,-94.1914,2.0,249.8350754,10.79144569,-99999.0,'11111222,11111222,99999999' 
TABS,ioos:station:TABS:M:1,1999-04-02T02:00:00Z,28.1921,-94.1914,2.0,249.5760402,13.66927211,-99999.0,'11111222,11111222,99999999' 
TABS,ioos:station:TABS:M:1,1999-04-02T02:30:00Z,28.1921,-94.1914,2.0,253.912738,16.13167381,-99999.0,'11111222,11111222,99999999' 
TABS,ioos:station:TABS:M:1,1999-04-02T03:00:00Z,28.1921,-94.1914,2.0,252.706628,19.04069326,-99999.0,'11111222,11111222,99999999' 
TABS,ioos:station:TABS:M:1,1999-04-02T03:30:00Z,28.1921,-94.1914,2.0,259.0598905,22.76367501,-99999.0,'11111222,11111222,99999999' 
TABS,ioos:station:TABS:M:1,1999-04-02T04:00:00Z,28.1921,-94.1914,2.0,260.2072301,25.40006496,-99999.0,'11111222,11111222,99999999' 
TABS,ioos:station:TABS:M:1,1999-04-02T04:30:00Z,28.1921,-94.1914,2.0,263.5550304,27.88621523,-99999.0,'11111222,11111222,99999999' 
TABS,ioos:station:TABS:M:1,1999-04-02T05:00:00Z,28.1921,-94.1914,2.0,271.959771,30.41778427,-99999.0,'11111222,11111222,99999999' 
TABS,ioos:station:TABS:M:1,1999-04-02T05:30:00Z,28.1921,-94.1914,2.0,276.1393813,32.07393022,-99999.0,'11111222,11111222,99999999' 
TABS,ioos:station:TABS:M:1,1999-04-02T06:00:00Z,28.1921,-94.1914,2.0,283.9224645,34.08117369,-99999.0,'11111222,11111222,99999999' 
TABS,ioos:station:TABS:M:1,1999-04-02T06:30:00Z,28.1921,-94.1914,2.0,288.4405942,34.39609426,-99999.0,'11111222,11111222,99999999' 
TABS,ioos:station:TABS:M:1,1999-04-02T07:00:00Z,28.1921,-94.1914,2.0,292.9306583,33.64895541,-99999.0,'11111222,11111222,99999999' 
TABS,ioos:station:TABS:M:1,1999-04-02T07:30:00Z,28.1921,-94.1914,2.0,297.9888848,34.92474338,-99999.0,'11111222,11111222,99999999' 
TABS,ioos:station:TABS:M:1,1999-04-02T08:00:00Z,28.1921,-94.1914,2.0,303.4772951,34.30012391,-99999.0,'11111222,11111222,99999999' 
TABS,ioos:station:TABS:M:1,1999-04-02T08:30:00Z,28.1921,-94.1914,2.0,305.8379901,33.08336893,-99999.0,'11111222,11111222,99999999' 
TABS,ioos:station:TABS:M:1,1999-04-02T09:00:00Z,28.1921,-94.1914,2.0,308.04029,30.46035128,-99999.0,'11111222,11111222,99999999' 
TABS,ioos:station:TABS:M:1,1999-04-02T09:30:00Z,28.1921,-94.1914,2.0,308.6572077,30.52884701,-99999.0,'11111222,11111222,99999999' 
TABS,ioos:station:TABS:M:1,1999-04-02T10:00:00Z,28.1921,-94.1914,2.0,311.2200185,27.13415744,-99999.0,'11111222,11111222,99999999' 
TABS,ioos:station:TABS:M:1,1999-04-02T10:30:00Z,28.1921,-94.1914,2.0,314.3373717,27.50122361,-99999.0,'11111222,11111222,99999999' 
TABS,ioos:station:TABS:M:1,1999-04-02T11:00:00Z,28.1921,-94.1914,2.0,316.9062894,25.51238523,-99999.0,'11111222,11111222,99999999' 
TABS,ioos:station:TABS:M:1,1999-04-02T11:30:00Z,28.1921,-94.1914,2.0,315.2479185,24.54390556,-99999.0,'11111222,11111222,99999999' 
TABS,ioos:station:TABS:M:1,1999-04-02T12:00:00Z,28.1921,-94.1914,2.0,313.6390183,22.02552156,-99999.0,'11111222,11111222,99999999' 
TABS,ioos:station:TABS:M:1,1999-04-02T12:30:00Z,28.1921,-94.1914,2.0,315.0003157,20.64751801,-99999.0,'11111222,11111222,99999999' 
TABS,ioos:station:TABS:M:1,1999-04-02T13:00:00Z,28.1921,-94.1914,2.0,314.4349165,21.49709283,-99999.0,'11111222,11111222,99999999' 
TABS,ioos:station:TABS:M:1,1999-04-02T13:30:00Z,28.1921,-94.1914,2.0,312.165459,21.30291295,-99999.0,'11111222,11111222,99999999' 
TABS,ioos:station:TABS:M:1,1999-04-02T14:00:00Z,28.1921,-94.1914,2.0,314.4641669,21.91419859,-99999.0,'11111222,11111222,99999999' 
TABS,ioos:station:TABS:M:1,1999-04-02T14:30:00Z,28.1921,-94.1914,2.0,312.6693982,23.2972316,-99999.0,'11111222,11111222,99999999' 
TABS,ioos:station:TABS:M:1,1999-04-02T15:00:00Z,28.1921,-94.1914,2.0,322.1129911,20.38721413,-99999.0,'11111222,11111222,99999999' 
TABS,ioos:station:TABS:M:1,1999-04-02T15:30:00Z,28.1921,-94.1914,2.0,313.1399159,16.33570629,-99999.0,'11111222,11111222,99999999' 
TABS,ioos:station:TABS:M:1,1999-04-02T16:00:00Z,28.1921,-94.1914,2.0,342.8169432,28.23006376,-99999.0,'11111222,11111222,99999999' 
TABS,ioos:station:TABS:M:1,1999-04-02T16:30:00Z,28.1921,-94.1914,2.0,325.7092761,31.20360236,-99999.0,'11111222,11111222,99999999' 
TABS,ioos:station:TABS:M:1,1999-04-02T17:00:00Z,28.1921,-94.1914,2.0,323.5613237,31.11287997,-99999.0,'11111222,11111222,99999999' 
TABS,ioos:station:TABS:M:1,1999-04-02T17:30:00Z,28.1921,-94.1914,2.0,328.8977198,31.14766444,-99999.0,'11111222,11111222,99999999' 
TABS,ioos:station:TABS:M:1,1999-04-02T18:00:00Z,28.1921,-94.1914,2.0,313.5139359,28.35037919,-99999.0,'11111222,11111222,99999999' 
TABS,ioos:station:TABS:M:1,1999-04-02T18:30:00Z,28.1921,-94.1914,2.0,317.2692698,23.93311513,-99999.0,'11111222,11111222,99999999' 
TABS,ioos:station:TABS:M:1,1999-04-02T19:00:00Z,28.1921,-94.1914,2.0,325.8965823,28.42912591,-99999.0,'11111222,11111222,99999999' 
TABS,ioos:station:TABS:M:1,1999-04-02T19:30:00Z,28.1921,-94.1914,2.0,331.2571718,24.47579416,-99999.0,'11111222,11111222,99999999' 
TABS,ioos:station:TABS:M:1,1999-04-02T20:00:00Z,28.1921,-94.1914,2.0,336.0803203,24.61402852,-99999.0,'11111222,11111222,99999999' 
TABS,ioos:station:TABS:M:1,1999-04-02T20:30:00Z,28.1921,-94.1914,2.0,345.7119839,25.36462103,-99999.0,'11111222,11111222,99999999' 
TABS,ioos:station:TABS:M:1,1999-04-02T21:00:00Z,28.1921,-94.1914,2.0,326.9004664,19.92311472,-99999.0,'11111222,11111222,99999999' 
TABS,ioos:station:TABS:M:1,1999-04-02T21:30:00Z,28.1921,-94.1914,2.0,348.5107472,26.90922704,-99999.0,'11111222,11111222,99999999' 
TABS,ioos:station:TABS:M:1,1999-04-02T22:00:00Z,28.1921,-94.1914,2.0,355.0059808,22.28460455,-99999.0,'11111222,11111222,99999999' 
TABS,ioos:station:TABS:M:1,1999-04-02T22:30:00Z,28.1921,-94.1914,2.0,356.7400574,7.912806076,-99999.0,'11133222,11111222,99999999' 
TABS,ioos:station:TABS:M:1,1999-04-02T23:00:00Z,28.1921,-94.1914,2.0,37.93672579,17.94110922,-99999.0,'11111222,11111222,99999999' 
TABS,ioos:station:TABS:M:1,1999-04-02T23:30:00Z,28.1921,-94.1914,2.0,322.647582,7.120252805,-99999.0,'11133222,11111222,99999999' 
TABS,ioos:station:TABS:M:1,1999-04-03T00:00:00Z,28.1921,-94.1914,2.0,312.6777094,5.059970356,-99999.0,'11133222,11111222,99999999' 
TABS,ioos:station:TABS:M:1,1999-04-03T00:30:00Z,28.1921,-94.1914,2.0,296.56541,2.99633109,-99999.0,'11133222,11111222,99999999' 
TABS,ioos:station:TABS:M:1,1999-04-03T01:00:00Z,28.1921,-94.1914,2.0,270.0004209,3.72,-99999.0,'11133222,11111222,99999999' 
TABS,ioos:station:TABS:M:1,1999-04-03T01:30:00Z,28.1921,-94.1914,2.0,287.6156619,6.410592796,-99999.0,'11133222,11111222,99999999' 
TABS,ioos:station:TABS:M:1,1999-04-03T02:00:00Z,28.1921,-94.1914,2.0,292.8683693,7.282375986,-99999.0,'11133222,11111222,99999999' 
TABS,ioos:station:TABS:M:1,1999-04-03T02:30:00Z,28.1921,-94.1914,2.0,294.4021894,9.004354502,-99999.0,'11133222,11111222,99999999' 
TABS,ioos:station:TABS:M:1,1999-04-03T03:00:00Z,28.1921,-94.1914,2.0,293.1768609,13.61910423,-99999.0,'11111222,11111222,99999999' 
TABS,ioos:station:TABS:M:1,1999-04-03T03:30:00Z,28.1921,-94.1914,2.0,298.1029,12.33411934,-99999.0,'11111222,11111222,99999999' 
TABS,ioos:station:TABS:M:1,1999-04-03T04:00:00Z,28.1921,-94.1914,2.0,292.2020766,12.22647946,-99999.0,'11111222,11111222,99999999' 
TABS,ioos:station:TABS:M:1,1999-04-03T04:30:00Z,28.1921,-94.1914,2.0,287.0656495,15.74315407,-99999.0,'11111222,11111222,99999999' 
TABS,ioos:station:TABS:M:1,1999-04-03T05:00:00Z,28.1921,-94.1914,2.0,281.7533257,18.26288039,-99999.0,'11111222,11111222,99999999' 
TABS,ioos:station:TABS:M:1,1999-04-03T05:30:00Z,28.1921,-94.1914,2.0,290.996654,19.95493423,-99999.0,'11111222,11111222,99999999' 
TABS,ioos:station:TABS:M:1,1999-04-03T06:00:00Z,28.1921,-94.1914,2.0,290.9125409,22.97328013,-99999.0,'11111222,11111222,99999999' 
TABS,ioos:station:TABS:M:1,1999-04-03T06:30:00Z,28.1921,-94.1914,2.0,295.3322101,24.727695,-99999.0,'11111222,11111222,99999999' 
TABS,ioos:station:TABS:M:1,1999-04-03T07:00:00Z,28.1921,-94.1914,2.0,294.3677396,26.00671067,-99999.0,'11111222,11111222,99999999' 
TABS,ioos:station:TABS:M:1,1999-04-03T07:30:00Z,28.1921,-94.1914,2.0,296.56541,29.65026138,-99999.0,'11111222,11111222,99999999' 
TABS,ioos:station:TABS:M:1,1999-04-03T08:00:00Z,28.1921,-94.1914,2.0,302.2717594,30.13500456,-99999.0,'11111222,11111222,99999999' 
TABS,ioos:station:TABS:M:1,1999-04-03T08:30:00Z,28.1921,-94.1914,2.0,306.8702323,29.05,-99999.0,'11111222,11111222,99999999' 
TABS,ioos:station:TABS:M:1,1999-04-03T09:00:00Z,28.1921,-94.1914,2.0,308.5374502,29.90265874,-99999.0,'11111222,11111222,99999999' 
TABS,ioos:station:TABS:M:1,1999-04-03T12:00:00Z,28.1921,-94.1914,2.0,329.6606556,23.30118023,-99999.0,'11111222,11111222,99999999' 
TABS,ioos:station:TABS:M:1,1999-04-03T12:30:00Z,28.1921,-94.1914,2.0,333.8084777,20.59462308,-99999.0,'11111222,11111222,99999999' 
TABS,ioos:station:TABS:M:1,1999-04-03T13:00:00Z,28.1921,-94.1914,2.0,327.0692295,18.6340146,-99999.0,'11111222,11111222,99999999' 
TABS,ioos:station:TABS:M:1,1999-04-03T13:30:00Z,28.1921,-94.1914,2.0,320.5167403,16.40306374,-99999.0,'11111222,11111222,99999999' 
TABS,ioos:station:TABS:M:1,1999-04-03T14:00:00Z,28.1921,-94.1914,2.0,329.8219866,16.88905267,-99999.0,'11111222,11111222,99999999' 
TABS,ioos:station:TABS:M:1,1999-04-03T14:30:00Z,28.1921,-94.1914,2.0,327.9355826,17.40517452,-99999.0,'11111222,11111222,99999999' 
TABS,ioos:station:TABS:M:1,1999-04-03T15:00:00Z,28.1921,-94.1914,2.0,324.7720402,15.4983612,-99999.0,'11111222,11111222,99999999' 
TABS,ioos:station:TABS:M:1,1999-04-03T15:30:00Z,28.1921,-94.1914,2.0,341.9183009,14.88512345,-99999.0,'11111222,11111222,99999999' 
TABS,ioos:station:TABS:M:1,1999-04-03T16:00:00Z,28.1921,-94.1914,2.0,331.4377363,15.26820553,-99999.0,'11111222,11111222,99999999' 
TABS,ioos:station:TABS:M:1,1999-04-03T16:30:00Z,28.1921,-94.1914,2.0,346.5456115,28.19379364,-99999.0,'11111222,11111222,99999999' 
TABS,ioos:station:TABS:M:1,1999-04-03T17:00:00Z,28.1921,-94.1914,2.0,339.9884334,20.45503361,-99999.0,'11111222,11111222,99999999' 
TABS,ioos:station:TABS:M:1,1999-04-03T17:30:00Z,28.1921,-94.1914,2.0,4.30371883,25.85289152,-99999.0,'11111222,11111222,99999999' 
TABS,ioos:station:TABS:M:1,1999-04-03T18:00:00Z,28.1921,-94.1914,2.0,354.0160025,31.46144466,-99999.0,'11111222,11111222,99999999' 
TABS,ioos:station:TABS:M:1,1999-04-03T18:30:00Z,28.1921,-94.1914,2.0,7.561436458,27.20656722,-99999.0,'11111222,11111222,99999999' 
TABS,ioos:station:TABS:M:1,1999-04-03T19:00:00Z,28.1921,-94.1914,2.0,352.1095643,16.24379882,-99999.0,'11111222,11111222,99999999' 
TABS,ioos:station:TABS:M:1,1999-04-03T19:30:00Z,28.1921,-94.1914,2.0,5.489008488,21.85018535,-99999.0,'11111222,11111222,99999999' 
TABS,ioos:station:TABS:M:1,1999-04-03T20:00:00Z,28.1921,-94.1914,2.0,13.13246547,32.13026766,-99999.0,'11111222,11111222,99999999' 
TABS,ioos:station:TABS:M:1,1999-04-03T20:30:00Z,28.1921,-94.1914,2.0,13.12204546,22.94921785,-99999.0,'11111222,11111222,99999999' 
TABS,ioos:station:TABS:M:1,1999-04-03T21:00:00Z,28.1921,-94.1914,2.0,7.890856662,16.24379882,-99999.0,'11111222,11111222,99999999' 
TABS,ioos:station:TABS:M:1,1999-04-03T21:30:00Z,28.1921,-94.1914,2.0,9.309122599,9.211308268,-99999.0,'11133222,11111222,99999999' 
TABS,ioos:station:TABS:M:1,1999-04-03T22:00:00Z,28.1921,-94.1914,2.0,67.96622657,21.0580246,-99999.0,'11111222,11111222,99999999' 
TABS,ioos:station:TABS:M:1,1999-04-03T22:30:00Z,28.1921,-94.1914,2.0,24.65176176,13.92952619,-99999.0,'11111222,11111222,99999999' 
TABS,ioos:station:TABS:M:1,1999-04-03T23:00:00Z,28.1921,-94.1914,2.0,33.52018295,12.15076129,-99999.0,'11111222,11111222,99999999' 
TABS,ioos:station:TABS:M:1,1999-04-03T23:30:00Z,28.1921,-94.1914,2.0,29.55832452,10.27757267,-99999.0,'11111222,11111222,99999999' 
TABS,ioos:station:TABS:M:1,1999-04-04T00:00:00Z,28.1921,-94.1914,2.0,32.26562185,10.04040338,-99999.0,'11111222,11111222,99999999' 
TABS,ioos:station:TABS:M:1,1999-04-04T00:30:00Z,28.1921,-94.1914,2.0,31.34216527,11.16994628,-99999.0,'11111222,11111222,99999999' 
TABS,ioos:station:TABS:M:1,1999-04-04T01:00:00Z,28.1921,-94.1914,2.0,45.00010523,9.687362902,-99999.0,'11133222,11111222,99999999' 
TABS,ioos:station:TABS:M:1,1999-04-04T01:30:00Z,28.1921,-94.1914,2.0,48.8837821,9.291506875,-99999.0,'11133222,11111222,99999999' 
TABS,ioos:station:TABS:M:1,1999-04-04T02:00:00Z,28.1921,-94.1914,2.0,42.54925832,7.275713023,-99999.0,'11133222,11111222,99999999' 
TABS,ioos:station:TABS:M:1,1999-04-04T02:30:00Z,28.1921,-94.1914,2.0,32.61634381,6.363528895,-99999.0,'11133222,11111222,99999999' 
TABS,ioos:station:TABS:M:1,1999-04-04T03:00:00Z,28.1921,-94.1914,2.0,29.50980836,5.136321641,-99999.0,'11133222,11111222,99999999' 
TABS,ioos:station:TABS:M:1,1999-04-04T03:30:00Z,28.1921,-94.1914,2.0,23.23190392,4.53795108,-99999.0,'11133222,11111222,99999999' 
TABS,ioos:station:TABS:M:1,1999-04-04T04:00:00Z,28.1921,-94.1914,2.0,0.000210459,4.92,-99999.0,'11133222,11111222,99999999' 
TABS,ioos:station:TABS:M:1,1999-04-04T04:30:00Z,28.1921,-94.1914,2.0,17.61545146,6.410592796,-99999.0,'11133222,11111222,99999999' 
TABS,ioos:station:TABS:M:1,1999-04-04T05:00:00Z,28.1921,-94.1914,2.0,17.81460998,4.380011416,-99999.0,'11133222,11111222,99999999' 
TABS,ioos:station:TABS:M:1,1999-04-04T05:30:00Z,28.1921,-94.1914,2.0,9.4001423,4.530838774,-99999.0,'11133222,11111222,99999999' 
TABS,ioos:station:TABS:M:1,1999-04-04T06:00:00Z,28.1921,-94.1914,2.0,2.174949488,7.90569415,-99999.0,'11133222,11111222,99999999' 
TABS,ioos:station:TABS:M:1,1999-04-04T06:30:00Z,28.1921,-94.1914,2.0,19.94118237,3.489197615,-99999.0,'11133222,11111222,99999999' 
TABS,ioos:station:TABS:M:1,1999-04-04T07:00:00Z,28.1921,-94.1914,2.0,49.015832,4.543709938,-99999.0,'11133222,11111222,99999999' 
TABS,ioos:station:TABS:M:1,1999-04-04T07:30:00Z,28.1921,-94.1914,2.0,90.0,2.38,-99999.0,'11133222,11111222,99999999' 
TABS,ioos:station:TABS:M:1,1999-04-04T08:00:00Z,28.1921,-94.1914,2.0,38.12100809,2.656633208,-99999.0,'11133222,11111222,99999999' 
TABS,ioos:station:TABS:M:1,1999-04-04T08:30:00Z,28.1921,-94.1914,2.0,179.9997895,0.74,-99999.0,'11133222,11111222,99999999' 
TABS,ioos:station:TABS:M:1,1999-04-04T09:00:00Z,28.1921,-94.1914,2.0,309.0358425,0.952680429,-99999.0,'11133222,11111222,99999999' 
TABS,ioos:station:TABS:M:1,1999-04-04T09:30:00Z,28.1921,-94.1914,2.0,234.5138826,2.566748916,-99999.0,'11133222,11111222,99999999' 
TABS,ioos:station:TABS:M:1,1999-04-04T10:00:00Z,28.1921,-94.1914,2.0,216.7924871,1.486001346,-99999.0,'11133222,11111222,99999999' 
TABS,ioos:station:TABS:M:1,1999-04-04T10:30:00Z,28.1921,-94.1914,2.0,214.9142316,1.817058062,-99999.0,'11133222,11111222,99999999' 
TABS,ioos:station:TABS:M:1,1999-04-04T11:00:00Z,28.1921,-94.1914,2.0,218.1205872,2.656633208,-99999.0,'11133222,11111222,99999999' 
TABS,ioos:station:TABS:M:1,1999-04-04T11:30:00Z,28.1921,-94.1914,2.0,221.6066812,3.584243295,-99999.0,'11133222,11111222,99999999' 
TABS,ioos:station:TABS:M:1,1999-04-04T12:00:00Z,28.1921,-94.1914,2.0,203.9423833,2.932319901,-99999.0,'11133222,11111222,99999999' 
TABS,ioos:station:TABS:M:1,1999-04-04T12:30:00Z,28.1921,-94.1914,2.0,218.1877725,6.25965654,-99999.0,'11133222,11111222,99999999' 
TABS,ioos:station:TABS:M:1,1999-04-04T13:00:00Z,28.1921,-94.1914,2.0,212.237579,8.098450469,-99999.0,'11133222,11111222,99999999' 
TABS,ioos:station:TABS:M:1,1999-04-04T13:30:00Z,28.1921,-94.1914,2.0,226.3723205,8.855518054,-99999.0,'11133222,11111222,99999999' 
TABS,ioos:station:TABS:M:1,1999-04-04T14:00:00Z,28.1921,-94.1914,2.0,227.1744233,11.18033989,-99999.0,'11111222,11111222,99999999' 
TABS,ioos:station:TABS:M:1,1999-04-04T14:30:00Z,28.1921,-94.1914,2.0,239.9930124,12.21754885,-99999.0,'11111222,11111222,99999999' 
TABS,ioos:station:TABS:M:1,1999-04-04T15:00:00Z,28.1921,-94.1914,2.0,252.2222293,12.67524359,-99999.0,'11111222,11111222,99999999' 
TABS,ioos:station:TABS:M:1,1999-04-04T15:30:00Z,28.1921,-94.1914,2.0,243.699769,15.46033958,-99999.0,'11111222,11111222,99999999' 
TABS,ioos:station:TABS:M:1,1999-04-04T16:00:00Z,28.1921,-94.1914,2.0,247.6308786,13.69013148,-99999.0,'11111222,11111222,99999999' 
TABS,ioos:station:TABS:M:1,1999-04-04T16:30:00Z,28.1921,-94.1914,2.0,261.6621541,16.41347008,-99999.0,'11111222,11111222,99999999' 
TABS,ioos:station:TABS:M:1,1999-04-04T17:00:00Z,28.1921,-94.1914,2.0,268.044855,17.59023593,-99999.0,'11111222,11111222,99999999' 
TABS,ioos:station:TABS:M:1,1999-04-04T17:30:00Z,28.1921,-94.1914,2.0,269.5148559,17.73063451,-99999.0,'11111222,11111222,99999999' 
TABS,ioos:station:TABS:M:1,1999-04-04T18:00:00Z,28.1921,-94.1914,2.0,282.5442801,16.48346141,-99999.0,'11111222,11111222,99999999' 
TABS,ioos:station:TABS:M:1,1999-04-04T18:30:00Z,28.1921,-94.1914,2.0,295.3502654,21.93181479,-99999.0,'11111222,11111222,99999999' 
TABS,ioos:station:TABS:M:1,1999-04-04T19:00:00Z,28.1921,-94.1914,2.0,298.913227,24.34438334,-99999.0,'11111222,11111222,99999999' 
TABS,ioos:station:TABS:M:1,1999-04-04T19:30:00Z,28.1921,-94.1914,2.0,308.4633848,26.83237224,-99999.0,'11111222,11111222,99999999' 
TABS,ioos:station:TABS:M:1,1999-04-04T20:00:00Z,28.1921,-94.1914,2.0,286.0210015,16.74014636,-99999.0,'11111222,11111222,99999999' 
TABS,ioos:station:TABS:M:1,1999-04-04T20:30:00Z,28.1921,-94.1914,2.0,318.5543378,33.99235796,-99999.0,'11111222,11111222,99999999' 